Location: Sluknov
(51.0170°N, 14.4670°E)
Time: 10:17:20
(UTC+01:00)

ISS - Pass Details

Date: 19 February 2026
Orbit: 416 x 426 km, 51.6° (Epoch: 9 March)

Event Time Altitude Azimuth Distance (km) Brightness Sun altitude
Exits shadow 04:10:01 16° 103° (ESE) 1,182 -0.9 -28.3°
Drops below altitude 10° 04:11:02 10° 90° (E) 1,494 -0.1 -28.2°
Sets 04:13:22 0° 76° (ENE) 2,359 1.3 -27.8°
